Flag for Canada Weather past 2 weeks in Granby, Quebec, Canada

Now
74 °F

Mild.


Feels Like: 77 °F
Forecast: N/A
Wind: 3 mph from Southwest

Location: Frelighsburg

Current Time: Aug 4, 2015 at 6:39:43 PM

Latest Report: Aug 4, 2015 at 5:00 PM


Visibility: N/A

Pressure: 29.80 "Hg

Humidity: 58%

Dew point: 58 °F

Location of GranbyLocation

Historic Weather in Granby — Graph

°F

Granby temperature yesterday

Maximum temperature yesterday: 78 °F (at 1:00 PM)
Minimum temperature yesterday: 65 °F (at 10:00 PM)
Average temperature yesterday: 72 °F

Past Weeks' High & Low Weather Summary

 TemperatureHumidityPressure
High86 °F (Jul 29, 5:00 PM)99% (Jul 21, 3:00 PM)30.00 "Hg (Jul 21, 3:00 PM)
Low56 °F (Aug 2, 6:00 AM)48% (Aug 2, 4:00 PM)29.53 "Hg (Jul 21, 5:00 PM)
Average69 °F79%29.82 "Hg
* Reported Jul 20 5:00 PM — Aug 4 5:00 PM, Granby, Weather by CustomWeather, © 2015

Note: Actual official high and low records may vary slightly from our data, if they occured in-between our weather recording intervals... More about our weather records

Advertising

Granby weather history for previous 24 hours

 ConditionsComfort  
Time TempWeatherWind HumidityBarometerVisibility
5:00 PM
Tue, Aug 4
74 °FMild.3 mph58%29.80 "HgN/A
4:00 PM75 °FMild.3 mph58%29.79 "HgN/A
3:00 PM73 °FMild.3 mph67%29.79 "HgN/A
2:00 PM72 °FMild.5 mph65%29.80 "HgN/A
1:00 PM72 °FMild.3 mph68%29.81 "HgN/A
12:00 PM71 °FMild.3 mph71%29.81 "HgN/A
11:00 AM71 °FMild.5 mph73%29.82 "HgN/A
10:00 AM67 °FMild.5 mph85%29.80 "HgN/A
9:00 AM71 °FMild.6 mph74%29.80 "HgN/A
8:00 AM67 °FMild.6 mph85%29.79 "HgN/A
7:00 AM62 °FCool.3 mph99%29.80 "HgN/A
6:00 AM62 °FCool.3 mph96%29.79 "HgN/A
5:00 AM61 °FCool.3 mph93%29.78 "HgN/A
4:00 AM62 °FCool.3 mph92%29.77 "HgN/A
3:00 AM64 °FMild.2 mph88%29.76 "HgN/A
2:00 AM64 °FMild.2 mph86%29.75 "HgN/A
1:00 AM64 °FMild.3 mph84%29.75 "HgN/A
12:00 AM66 °FMild.2 mph79%29.75 "HgN/A
11:00 PM
Mon, Aug 3
67 °FMild.3 mph76%29.75 "HgN/A
10:00 PM65 °FMild.2 mph80%29.75 "HgN/A
9:00 PM69 °FMild.2 mph73%29.73 "HgN/A
8:00 PM70 °FMild.2 mph81%29.70 "HgN/A
7:00 PM73 °FMild.No wind76%29.69 "HgN/A
6:00 PM75 °FMild.2 mph66%29.68 "HgN/A
Weather by CustomWeather, © 2015

See weather overviewHow to use our weather pages